カタログに戻る

QPS-SAR-12 KUSHINADA-I

運用中科学VLEO
NORAD 65116·PAYLOAD·🇯🇵 Japan

打ち上げ Aug 5, 2025 から Rocket Lab Launch Complex 1

Loading…

次のパス (今後24時間)

TLE

最新Source: Space-Track

元期: Sep 14, 2026, 11:02 UTC

1 65116U 25169A   26257.46012797  .00003568  00000-0  28541-3 0  9995
2 65116  42.0104 244.1079 0006727  76.9762 283.1815 15.01490242 60831

AllMySatでQPS-SAR-12 KUSHINADA-Iをリアルタイム追跡

Download on the App Store